Time,TemperatureF,DewpointF,PressureIn,WindDirection,WindDirectionDegrees,WindSpeedMPH,WindSpeedGustMPH,Humidity,HourlyPrecipIn,Conditions,Clouds,dailyrainin,SoftwareType,DateUTC
2013-04-24 00:01:00,38.4,37.6,30.12,NE,49,7.0,12.0,97,0.00,,,0.00,VWS V14.01,2013-04-24 04:01:00,
2013-04-24 00:06:00,38.4,37.6,30.12,ENE,67,5.0,8.0,97,0.00,,,0.00,VWS V14.01,2013-04-24 04:06:00,
2013-04-24 00:11:00,38.4,37.6,30.12,NW,321,6.0,8.0,97,0.00,,,0.00,VWS V14.01,2013-04-24 04:11:00,
2013-04-24 00:16:00,38.5,37.7,30.12,NE,42,6.0,9.0,97,0.00,,,0.00,VWS V14.01,2013-04-24 04:16:00,
2013-04-24 00:21:00,38.5,37.7,30.12,NNE,15,5.0,9.0,97,0.00,,,0.00,VWS V14.01,2013-04-24 04:21:00,
2013-04-24 00:26:00,38.6,37.8,30.11,NE,53,3.0,9.0,97,0.00,,,0.00,VWS V14.01,2013-04-24 04:26:00,
2013-04-24 00:31:00,38.6,37.8,30.11,NE,53,5.0,9.0,97,0.00,,,0.00,VWS V14.01,2013-04-24 04:31:00,
2013-04-24 00:36:00,38.7,37.9,30.10,NE,40,5.0,8.0,97,0.00,,,0.00,VWS V14.01,2013-04-24 04:36:00,
2013-04-24 00:41:00,38.7,37.9,30.10,NNE,28,7.0,9.0,97,0.00,,,0.00,VWS V14.01,2013-04-24 04:41:00,
2013-04-24 00:46:00,38.7,37.9,30.10,NE,34,4.0,10.0,97,0.00,,,0.00,VWS V14.01,2013-04-24 04:46:00,
2013-04-24 00:51:00,38.8,38.0,30.10,NE,44,5.0,11.0,97,0.00,,,0.00,VWS V14.01,2013-04-24 04:51:00,
2013-04-24 00:56:00,38.9,38.1,30.09,ENE,67,5.0,11.0,97,0.00,,,0.00,VWS V14.01,2013-04-24 04:56:00,
2013-04-24 01:01:00,38.9,38.1,30.09,ENE,58,5.0,11.0,97,0.00,,,0.00,VWS V14.01,2013-04-24 05:01:00,
2013-04-24 01:06:00,38.9,38.1,30.09,NE,53,4.0,6.0,97,0.00,,,0.00,VWS V14.01,2013-04-24 05:06:00,
2013-04-24 01:11:00,38.9,38.1,30.09,NNE,17,7.0,10.0,97,0.00,,,0.00,VWS V14.01,2013-04-24 05:11:00,
2013-04-24 01:16:00,38.9,38.1,30.08,NNW,346,7.0,10.0,97,0.00,,,0.00,VWS V14.01,2013-04-24 05:16:00,
2013-04-24 01:21:00,38.9,38.1,30.08,NNE,13,3.0,13.0,97,0.00,,,0.00,VWS V14.01,2013-04-24 05:21:00,
2013-04-24 01:26:00,38.9,38.1,30.08,NE,34,7.0,13.0,97,0.00,,,0.00,VWS V14.01,2013-04-24 05:26:00,
2013-04-24 01:31:00,39.0,38.2,30.08,ENE,68,3.0,13.0,97,0.00,,,0.00,VWS V14.01,2013-04-24 05:31:00,
2013-04-24 01:36:00,39.0,38.2,30.08,NNE,31,4.0,9.0,97,0.00,,,0.00,VWS V14.01,2013-04-24 05:36:00,
2013-04-24 01:41:00,39.0,38.2,30.07,NE,55,5.0,9.0,97,0.00,,,0.00,VWS V14.01,2013-04-24 05:41:00,
2013-04-24 01:46:00,39.0,38.2,30.07,NNE,27,5.0,10.0,97,0.00,,,0.00,VWS V14.01,2013-04-24 05:46:00,
2013-04-24 01:51:00,39.0,38.2,30.06,ENE,63,5.0,10.0,97,0.00,,,0.00,VWS V14.01,2013-04-24 05:51:00,
2013-04-24 01:56:00,39.0,38.2,30.06,NE,46,7.0,10.0,97,0.00,,,0.00,VWS V14.01,2013-04-24 05:56:00,
2013-04-24 02:01:00,39.1,38.3,30.05,NE,52,4.0,10.0,97,0.00,,,0.00,VWS V14.01,2013-04-24 06:01:00,
2013-04-24 02:06:00,39.0,38.2,30.05,NNE,20,5.0,9.0,97,0.00,,,0.00,VWS V14.01,2013-04-24 06:06:00,
2013-04-24 02:11:00,39.1,38.3,30.05,NE,54,3.0,9.0,97,0.00,,,0.00,VWS V14.01,2013-04-24 06:11:00,
2013-04-24 02:16:00,39.1,38.3,30.06,NE,49,5.0,10.0,97,0.00,,,0.00,VWS V14.01,2013-04-24 06:16:00,
2013-04-24 02:21:00,39.1,38.3,30.05,NNW,345,8.0,11.0,97,0.00,,,0.00,VWS V14.01,2013-04-24 06:21:00,
2013-04-24 02:26:00,39.1,38.3,30.05,NE,44,3.0,11.0,97,0.00,,,0.00,VWS V14.01,2013-04-24 06:26:00,
2013-04-24 02:31:00,39.1,38.3,30.05,ENE,60,4.0,11.0,97,0.00,,,0.00,VWS V14.01,2013-04-24 06:31:00,
2013-04-24 02:36:00,39.2,38.4,30.05,NNE,20,4.0,7.0,97,0.00,,,0.00,VWS V14.01,2013-04-24 06:36:00,
2013-04-24 02:41:00,39.2,38.4,30.05,North,5,3.0,10.0,97,0.00,,,0.00,VWS V14.01,2013-04-24 06:41:00,
2013-04-24 02:46:00,39.2,38.4,30.05,NE,37,7.0,10.0,97,0.00,,,0.00,VWS V14.01,2013-04-24 06:46:00,
2013-04-24 02:51:00,39.2,38.4,30.05,North,351,9.0,10.0,97,0.00,,,0.00,VWS V14.01,2013-04-24 06:51:00,
2013-04-24 02:56:00,39.3,38.5,30.05,NNE,22,4.0,10.0,97,0.00,,,0.00,VWS V14.01,2013-04-24 06:56:00,
2013-04-24 03:01:00,39.3,38.5,30.05,NNE,25,6.0,11.0,97,0.00,,,0.00,VWS V14.01,2013-04-24 07:01:00,
2013-04-24 03:06:00,39.4,38.6,30.05,North,11,6.0,9.0,97,0.00,,,0.00,VWS V14.01,2013-04-24 07:06:00,
2013-04-24 03:11:00,39.4,38.6,30.05,NW,325,5.0,9.0,97,0.00,,,0.00,VWS V14.01,2013-04-24 07:11:00,
2013-04-24 03:16:00,39.5,38.7,30.05,NNE,24,6.0,9.0,97,0.00,,,0.00,VWS V14.01,2013-04-24 07:16:00,
2013-04-24 03:21:00,39.5,38.7,30.04,North,355,12.0,12.0,97,0.00,,,0.00,VWS V14.01,2013-04-24 07:21:00,
2013-04-24 03:26:00,39.5,38.7,30.05,NNW,347,7.0,12.0,97,0.00,,,0.00,VWS V14.01,2013-04-24 07:26:00,
2013-04-24 03:31:00,39.5,38.7,30.05,North,355,3.0,12.0,97,0.00,,,0.00,VWS V14.01,2013-04-24 07:31:00,
2013-04-24 03:36:00,39.6,38.8,30.04,North,355,5.0,6.0,97,0.00,,,0.00,VWS V14.01,2013-04-24 07:36:00,
2013-04-24 03:41:00,39.6,38.8,30.04,NNE,22,8.0,8.0,97,0.00,,,0.00,VWS V14.01,2013-04-24 07:41:00,
2013-04-24 03:46:00,39.6,38.8,30.03,NE,55,3.0,12.0,97,0.00,,,0.00,VWS V14.01,2013-04-24 07:46:00,
2013-04-24 03:51:00,39.7,38.9,30.03,North,355,6.0,12.0,97,0.00,,,0.00,VWS V14.01,2013-04-24 07:51:00,
2013-04-24 03:56:00,39.7,38.9,30.03,NE,50,4.0,12.0,97,0.00,,,0.00,VWS V14.01,2013-04-24 07:56:00,
2013-04-24 04:01:00,39.7,38.9,30.03,North,5,4.0,12.0,97,0.00,,,0.00,VWS V14.01,2013-04-24 08:01:00,
2013-04-24 04:06:00,39.7,38.9,30.03,North,5,7.0,8.0,97,0.00,,,0.00,VWS V14.01,2013-04-24 08:06:00,
2013-04-24 04:11:00,39.8,39.0,30.03,North,355,2.0,10.0,97,0.00,,,0.00,VWS V14.01,2013-04-24 08:11:00,
2013-04-24 04:16:00,39.8,39.0,30.03,NW,318,5.0,12.0,97,0.00,,,0.00,VWS V14.01,2013-04-24 08:16:00,
2013-04-24 04:21:00,39.8,39.0,30.02,North,355,9.0,12.0,97,0.00,,,0.00,VWS V14.01,2013-04-24 08:21:00,
2013-04-24 04:26:00,39.8,39.0,30.02,North,355,8.0,12.0,97,0.00,,,0.00,VWS V14.01,2013-04-24 08:26:00,
2013-04-24 04:31:00,39.8,39.0,30.02,NNW,341,10.0,14.0,97,0.00,,,0.00,VWS V14.01,2013-04-24 08:31:00,
2013-04-24 04:36:00,39.9,39.1,30.02,North,10,3.0,5.0,97,0.00,,,0.00,VWS V14.01,2013-04-24 08:36:00,
2013-04-24 04:41:00,39.9,39.1,30.02,NNE,18,9.0,9.0,97,0.00,,,0.00,VWS V14.01,2013-04-24 08:41:00,
2013-04-24 04:46:00,39.9,39.1,30.01,North,360,4.0,9.0,97,0.00,,,0.00,VWS V14.01,2013-04-24 08:46:00,
2013-04-24 04:51:00,39.9,39.1,30.01,NE,56,4.0,10.0,97,0.00,,,0.00,VWS V14.01,2013-04-24 08:51:00,
2013-04-24 04:56:00,40.0,39.2,30.01,North,5,3.0,10.0,97,0.00,,,0.00,VWS V14.01,2013-04-24 08:56:00,
2013-04-24 05:01:00,40.0,39.0,30.02,NNW,333,3.0,10.0,96,0.00,,,0.00,VWS V14.01,2013-04-24 09:01:00,
2013-04-24 05:06:00,40.0,39.0,30.02,North,355,4.0,5.0,96,0.00,,,0.00,VWS V14.01,2013-04-24 09:06:00,
2013-04-24 05:11:00,40.1,39.0,30.02,NNW,345,5.0,10.0,96,0.00,,,0.00,VWS V14.01,2013-04-24 09:11:00,
2013-04-24 05:16:00,40.2,39.2,30.03,West,281,4.0,10.0,96,0.00,,,0.00,VWS V14.01,2013-04-24 09:16:00,
2013-04-24 05:21:00,40.2,39.2,30.03,NNW,343,3.0,10.0,96,0.00,,,0.00,VWS V14.01,2013-04-24 09:21:00,
2013-04-24 05:26:00,40.2,39.2,30.03,WNW,300,2.0,10.0,96,0.00,,,0.00,VWS V14.01,2013-04-24 09:26:00,
2013-04-24 05:31:00,40.3,39.2,30.03,North,349,5.0,10.0,96,0.00,,,0.00,VWS V14.01,2013-04-24 09:31:00,
2013-04-24 05:36:00,40.3,39.2,30.03,NNE,17,7.0,11.0,96,0.00,,,0.00,VWS V14.01,2013-04-24 09:36:00,
2013-04-24 05:41:00,40.3,39.2,30.03,NNE,30,3.0,11.0,96,0.00,,,0.00,VWS V14.01,2013-04-24 09:41:00,
2013-04-24 05:46:00,40.3,39.0,30.03,North,349,3.0,11.0,95,0.00,,,0.00,VWS V14.01,2013-04-24 09:46:00,
2013-04-24 05:51:00,40.4,39.1,30.03,NNW,339,1.0,11.0,95,0.00,,,0.00,VWS V14.01,2013-04-24 09:51:00,
2013-04-24 05:56:00,40.4,39.1,30.02,NW,326,6.0,11.0,95,0.00,,,0.00,VWS V14.01,2013-04-24 09:56:00,
2013-04-24 06:00:00,40.4,39.1,30.02,NW,325,3.0,11.0,95,0.00,,,0.00,VWS V14.01,2013-04-24 10:00:00,
2013-04-24 06:05:00,40.5,39.2,30.03,NNW,347,2.0,3.0,95,0.00,,,0.00,VWS V14.01,2013-04-24 10:05:00,
2013-04-24 06:10:00,40.4,39.1,30.03,NNW,332,4.0,8.0,95,0.00,,,0.00,VWS V14.01,2013-04-24 10:10:00,
2013-04-24 06:15:00,40.4,39.1,30.02,NW,315,6.0,8.0,95,0.00,,,0.00,VWS V14.01,2013-04-24 10:15:00,
2013-04-24 06:20:00,40.4,39.1,30.02,NW,306,5.0,8.0,95,0.00,,,0.00,VWS V14.01,2013-04-24 10:20:00,
2013-04-24 06:25:00,40.4,39.1,30.02,NNW,333,4.0,9.0,95,0.00,,,0.00,VWS V14.01,2013-04-24 10:25:00,
2013-04-24 06:30:00,40.5,39.2,30.02,NNE,15,3.0,9.0,95,0.00,,,0.00,VWS V14.01,2013-04-24 10:30:00,
2013-04-24 06:35:00,40.5,39.2,30.02,North,355,2.0,4.0,95,0.00,,,0.00,VWS V14.01,2013-04-24 10:35:00,
2013-04-24 06:40:00,40.6,39.3,30.01,ENE,66,3.0,8.0,95,0.00,,,0.00,VWS V14.01,2013-04-24 10:40:00,
2013-04-24 06:45:00,40.6,39.3,30.01,North,355,6.0,11.0,95,0.00,,,0.00,VWS V14.01,2013-04-24 10:45:00,
2013-04-24 06:50:00,40.6,39.3,30.01,NNE,19,4.0,11.0,95,0.00,,,0.00,VWS V14.01,2013-04-24 10:50:00,
2013-04-24 06:55:00,40.7,39.4,30.01,North,360,5.0,11.0,95,0.00,,,0.00,VWS V14.01,2013-04-24 10:55:00,
2013-04-24 07:00:00,40.8,39.5,30.01,North,5,1.0,11.0,95,0.00,,,0.00,VWS V14.01,2013-04-24 11:00:00,
2013-04-24 07:05:00,40.9,39.6,30.01,North,355,2.0,8.0,95,0.00,,,0.00,VWS V14.01,2013-04-24 11:05:00,
2013-04-24 07:10:00,41.0,39.7,30.01,NW,317,4.0,8.0,95,0.00,,,0.00,VWS V14.01,2013-04-24 11:10:00,
2013-04-24 07:15:00,41.1,39.5,30.01,NNW,340,1.0,9.0,94,0.00,,,0.00,VWS V14.01,2013-04-24 11:15:00,
2013-04-24 07:20:00,41.2,39.6,30.02,NNE,18,3.0,9.0,94,0.00,,,0.00,VWS V14.01,2013-04-24 11:20:00,
2013-04-24 07:25:00,41.3,39.7,30.02,NNE,15,3.0,9.0,94,0.00,,,0.00,VWS V14.01,2013-04-24 11:25:00,
2013-04-24 07:30:00,41.5,39.9,30.02,West,275,3.0,9.0,94,0.00,,,0.00,VWS V14.01,2013-04-24 11:30:00,
2013-04-24 07:35:00,41.7,40.1,30.02,NW,326,4.0,5.0,94,0.00,,,0.00,VWS V14.01,2013-04-24 11:35:00,
2013-04-24 07:40:00,42.0,40.4,30.02,WNW,294,3.0,6.0,94,0.00,,,0.00,VWS V14.01,2013-04-24 11:40:00,
2013-04-24 07:45:00,42.2,40.6,30.02,NNW,328,3.0,6.0,94,0.00,,,0.00,VWS V14.01,2013-04-24 11:45:00,
2013-04-24 07:50:00,42.4,40.5,30.02,WNW,288,3.0,8.0,93,0.00,,,0.00,VWS V14.01,2013-04-24 11:50:00,
2013-04-24 07:55:00,42.6,40.7,30.02,NW,311,4.0,11.0,93,0.00,,,0.00,VWS V14.01,2013-04-24 11:55:00,
2013-04-24 08:00:00,42.8,40.9,30.02,NNW,336,5.0,11.0,93,0.00,,,0.00,VWS V14.01,2013-04-24 12:00:00,
2013-04-24 08:05:00,43.2,41.3,30.03,NNW,331,4.0,6.0,93,0.00,,,0.00,VWS V14.01,2013-04-24 12:05:00,
2013-04-24 08:10:00,43.7,41.5,30.03,NNW,327,9.0,10.0,92,0.00,,,0.00,VWS V14.01,2013-04-24 12:10:00,
2013-04-24 08:15:00,43.4,41.0,30.03,NW,317,12.0,12.0,91,0.00,,,0.00,VWS V14.01,2013-04-24 12:15:00,
2013-04-24 08:20:00,43.7,41.5,30.03,West,273,9.0,13.0,92,0.00,,,0.00,VWS V14.01,2013-04-24 12:20:00,
2013-04-24 08:25:00,43.8,41.3,30.03,West,281,5.0,13.0,91,0.00,,,0.00,VWS V14.01,2013-04-24 12:25:00,
2013-04-24 08:30:00,43.9,41.5,30.03,NW,326,3.0,13.0,91,0.00,,,0.00,VWS V14.01,2013-04-24 12:30:00,
2013-04-24 08:35:00,43.9,41.5,30.03,WNW,284,9.0,12.0,91,0.00,,,0.00,VWS V14.01,2013-04-24 12:35:00,
2013-04-24 08:40:00,44.0,41.5,30.03,NW,306,6.0,12.0,91,0.00,,,0.00,VWS V14.01,2013-04-24 12:40:00,
2013-04-24 08:45:00,44.5,42.0,30.02,West,260,6.0,12.0,91,0.00,,,0.00,VWS V14.01,2013-04-24 12:45:00,
2013-04-24 08:50:00,45.0,42.2,30.02,NNW,331,6.0,12.0,90,0.00,,,0.00,VWS V14.01,2013-04-24 12:50:00,
2013-04-24 08:55:00,45.1,42.3,30.02,NNW,328,5.0,12.0,90,0.00,,,0.00,VWS V14.01,2013-04-24 12:55:00,
2013-04-24 09:00:00,45.3,42.5,30.01,NW,319,1.0,12.0,90,0.00,,,0.00,VWS V14.01,2013-04-24 13:00:00,
2013-04-24 09:05:00,45.7,42.7,30.01,NW,315,6.0,7.0,89,0.00,,,0.00,VWS V14.01,2013-04-24 13:05:00,
2013-04-24 09:10:00,45.9,42.8,30.01,NNW,331,4.0,9.0,89,0.00,,,0.00,VWS V14.01,2013-04-24 13:10:00,
2013-04-24 09:15:00,46.7,43.6,30.01,West,275,4.0,9.0,89,0.00,,,0.00,VWS V14.01,2013-04-24 13:15:00,
2013-04-24 09:20:00,47.3,43.9,30.01,WNW,288,3.0,9.0,88,0.00,,,0.00,VWS V14.01,2013-04-24 13:20:00,
2013-04-24 09:25:00,47.7,44.0,30.01,North,350,0.0,9.0,87,0.00,,,0.00,VWS V14.01,2013-04-24 13:25:00,
2013-04-24 09:30:00,48.4,44.1,30.00,NW,317,5.0,9.0,85,0.00,,,0.00,VWS V14.01,2013-04-24 13:30:00,
2013-04-24 09:35:00,48.8,44.2,30.00,NNE,17,3.0,3.0,84,0.00,,,0.00,VWS V14.01,2013-04-24 13:35:00,
2013-04-24 09:40:00,49.0,44.1,30.00,NW,309,5.0,7.0,83,0.00,,,0.00,VWS V14.01,2013-04-24 13:40:00,
2013-04-24 09:45:00,49.1,44.5,30.00,NNW,347,5.0,7.0,84,0.00,,,0.00,VWS V14.01,2013-04-24 13:45:00,
2013-04-24 09:50:00,50.1,44.8,29.99,NNW,331,3.0,7.0,82,0.00,,,0.00,VWS V14.01,2013-04-24 13:50:00,
2013-04-24 09:55:00,50.7,45.4,29.99,NNW,338,5.0,7.0,82,0.00,,,0.00,VWS V14.01,2013-04-24 13:55:00,
2013-04-24 10:00:00,51.1,45.5,29.99,NNE,14,1.0,7.0,81,0.00,,,0.00,VWS V14.01,2013-04-24 14:00:00,
2013-04-24 10:05:00,51.8,45.5,29.99,NW,319,4.0,6.0,79,0.00,,,0.00,VWS V14.01,2013-04-24 14:05:00,
2013-04-24 10:10:00,52.2,45.9,29.99,WNW,300,4.0,6.0,79,0.00,,,0.00,VWS V14.01,2013-04-24 14:10:00,
2013-04-24 10:15:00,52.8,46.1,29.98,WNW,302,3.0,6.0,78,0.00,,,0.00,VWS V14.01,2013-04-24 14:15:00,
2013-04-24 10:20:00,53.4,47.1,29.98,WSW,239,5.0,7.0,79,0.00,,,0.00,VWS V14.01,2013-04-24 14:20:00,
2013-04-24 10:25:00,54.1,46.4,29.98,WNW,286,3.0,9.0,75,0.00,,,0.00,VWS V14.01,2013-04-24 14:25:00,
2013-04-24 10:30:00,54.0,46.3,29.98,NW,316,0.0,9.0,75,0.00,,,0.00,VWS V14.01,2013-04-24 14:30:00,
2013-04-24 10:35:00,55.2,46.0,29.98,WNW,299,5.0,8.0,71,0.00,,,0.00,VWS V14.01,2013-04-24 14:35:00,
2013-04-24 10:40:00,55.3,46.1,29.97,NW,313,5.0,8.0,71,0.00,,,0.00,VWS V14.01,2013-04-24 14:40:00,
2013-04-24 10:45:00,56.2,46.6,29.97,NNW,331,3.0,8.0,70,0.00,,,0.00,VWS V14.01,2013-04-24 14:45:00,
2013-04-24 10:50:00,56.0,46.4,29.97,West,281,4.0,8.0,70,0.00,,,0.00,VWS V14.01,2013-04-24 14:50:00,
2013-04-24 10:55:00,57.1,46.7,29.97,WSW,257,2.0,8.0,68,0.00,,,0.00,VWS V14.01,2013-04-24 14:55:00,
2013-04-24 11:00:00,57.6,46.7,29.97,West,278,6.0,8.0,67,0.00,,,0.00,VWS V14.01,2013-04-24 15:00:00,
2013-04-24 11:05:00,58.3,47.4,29.97,NNW,331,2.0,6.0,67,0.00,,,0.00,VWS V14.01,2013-04-24 15:05:00,
2013-04-24 11:10:00,59.3,47.1,29.97,WNW,296,5.0,9.0,64,0.00,,,0.00,VWS V14.01,2013-04-24 15:10:00,
2013-04-24 11:15:00,58.9,46.8,29.97,West,267,7.0,9.0,64,0.00,,,0.00,VWS V14.01,2013-04-24 15:15:00,
2013-04-24 11:20:00,59.1,47.0,29.97,West,267,5.0,9.0,64,0.00,,,0.00,VWS V14.01,2013-04-24 15:20:00,
2013-04-24 11:25:00,59.4,46.8,29.97,NNW,335,4.0,12.0,63,0.00,,,0.00,VWS V14.01,2013-04-24 15:25:00,
2013-04-24 11:30:00,60.1,46.6,29.96,West,266,5.0,12.0,61,0.00,,,0.00,VWS V14.01,2013-04-24 15:30:00,
2013-04-24 11:35:00,60.7,48.5,29.96,West,263,9.0,10.0,64,0.00,,,0.00,VWS V14.01,2013-04-24 15:35:00,
2013-04-24 11:40:00,61.3,48.2,29.96,WSW,253,6.0,12.0,62,0.00,,,0.00,VWS V14.01,2013-04-24 15:40:00,
2013-04-24 11:45:00,61.7,47.2,29.96,SW,234,6.0,12.0,59,0.00,,,0.00,VWS V14.01,2013-04-24 15:45:00,
2013-04-24 11:50:00,61.8,47.3,29.96,WSW,249,14.0,14.0,59,0.00,,,0.00,VWS V14.01,2013-04-24 15:50:00,
2013-04-24 11:55:00,62.3,47.3,29.96,WNW,283,2.0,14.0,58,0.00,,,0.00,VWS V14.01,2013-04-24 15:55:00,
2013-04-24 12:00:00,62.4,46.0,29.96,West,279,5.0,15.0,55,0.00,,,0.00,VWS V14.01,2013-04-24 16:00:00,
2013-04-24 12:05:00,62.7,46.8,29.95,NW,325,2.0,5.0,56,0.00,,,0.00,VWS V14.01,2013-04-24 16:05:00,
2013-04-24 12:10:00,63.6,46.7,29.95,WNW,291,6.0,9.0,54,0.00,,,0.00,VWS V14.01,2013-04-24 16:10:00,
2013-04-24 12:15:00,64.0,47.0,29.95,WNW,285,7.0,9.0,54,0.00,,,0.00,VWS V14.01,2013-04-24 16:15:00,
2013-04-24 12:20:00,64.0,47.5,29.94,WNW,283,8.0,10.0,55,0.00,,,0.00,VWS V14.01,2013-04-24 16:20:00,
2013-04-24 12:25:00,63.7,46.8,29.94,SW,232,4.0,10.0,54,0.00,,,0.00,VWS V14.01,2013-04-24 16:25:00,
2013-04-24 12:30:00,64.1,46.1,29.94,WNW,302,6.0,10.0,52,0.00,,,0.00,VWS V14.01,2013-04-24 16:30:00,
2013-04-24 12:35:00,65.2,47.2,29.94,WSW,246,3.0,6.0,52,0.00,,,0.00,VWS V14.01,2013-04-24 16:35:00,
2013-04-24 12:40:00,65.0,47.0,29.93,WNW,288,7.0,11.0,52,0.00,,,0.00,VWS V14.01,2013-04-24 16:40:00,
2013-04-24 12:45:00,64.9,45.8,29.93,WSW,246,9.0,11.0,50,0.00,,,0.00,VWS V14.01,2013-04-24 16:45:00,
2013-04-24 12:50:00,64.9,45.8,29.92,West,263,4.0,11.0,50,0.00,,,0.00,VWS V14.01,2013-04-24 16:50:00,
2013-04-24 12:55:00,65.6,45.4,29.92,West,278,3.0,11.0,48,0.00,,,0.00,VWS V14.01,2013-04-24 16:55:00,
2013-04-24 13:00:00,65.6,45.4,29.92,WSW,244,7.0,12.0,48,0.00,,,0.00,VWS V14.01,2013-04-24 17:00:00,
2013-04-24 13:05:00,65.2,44.5,29.91,West,275,5.0,9.0,47,0.00,,,0.00,VWS V14.01,2013-04-24 17:05:00,
2013-04-24 13:10:00,66.1,46.9,29.91,WNW,284,7.0,9.0,50,0.00,,,0.00,VWS V14.01,2013-04-24 17:10:00,
2013-04-24 13:15:00,66.5,45.7,29.91,WNW,298,2.0,11.0,47,0.00,,,0.00,VWS V14.01,2013-04-24 17:15:00,
2013-04-24 13:20:00,66.9,44.9,29.90,WNW,300,2.0,11.0,45,0.00,,,0.00,VWS V14.01,2013-04-24 17:20:00,
2013-04-24 13:25:00,67.6,44.3,29.90,WNW,293,2.0,11.0,43,0.00,,,0.00,VWS V14.01,2013-04-24 17:25:00,
2013-04-24 13:30:00,67.4,44.2,29.90,West,275,8.0,12.0,43,0.00,,,0.00,VWS V14.01,2013-04-24 17:30:00,
2013-04-24 13:35:00,67.4,43.5,29.90,WNW,293,4.0,4.0,42,0.00,,,0.00,VWS V14.01,2013-04-24 17:35:00,
2013-04-24 13:40:00,67.1,42.6,29.89,SSE,166,0.0,6.0,41,0.00,,,0.00,VWS V14.01,2013-04-24 17:40:00,
2013-04-24 13:45:00,67.6,43.7,29.90,SSW,208,1.0,7.0,42,0.00,,,0.00,VWS V14.01,2013-04-24 17:45:00,
2013-04-24 13:50:00,68.2,42.3,29.89,SW,223,2.0,8.0,39,0.00,,,0.00,VWS V14.01,2013-04-24 17:50:00,
2013-04-24 13:55:00,68.3,41.0,29.89,WNW,287,5.0,12.0,37,0.00,,,0.00,VWS V14.01,2013-04-24 17:55:00,
2013-04-24 14:00:00,69.1,41.0,29.89,SW,225,2.0,12.0,36,0.00,,,0.00,VWS V14.01,2013-04-24 18:00:00,
2013-04-24 14:05:00,68.5,41.2,29.89,WNW,294,3.0,5.0,37,0.00,,,0.00,VWS V14.01,2013-04-24 18:05:00,
2013-04-24 14:10:00,69.2,41.8,29.89,West,273,3.0,10.0,37,0.00,,,0.00,VWS V14.01,2013-04-24 18:10:00,
2013-04-24 14:15:00,69.1,39.6,29.88,West,271,1.0,10.0,34,0.00,,,0.00,VWS V14.01,2013-04-24 18:15:00,
2013-04-24 14:20:00,68.8,35.3,29.87,SW,232,3.0,10.0,29,0.00,,,0.00,VWS V14.01,2013-04-24 18:20:00,
2013-04-24 14:25:00,69.0,37.9,29.87,West,267,7.0,10.0,32,0.00,,,0.00,VWS V14.01,2013-04-24 18:25:00,
2013-04-24 14:30:00,69.6,37.7,29.87,NW,317,3.0,10.0,31,0.00,,,0.00,VWS V14.01,2013-04-24 18:30:00,
2013-04-24 14:35:00,70.1,38.1,29.86,West,270,2.0,5.0,31,0.00,,,0.00,VWS V14.01,2013-04-24 18:35:00,
2013-04-24 14:40:00,70.9,38.8,29.86,WNW,291,6.0,9.0,31,0.00,,,0.00,VWS V14.01,2013-04-24 18:40:00,
2013-04-24 14:45:00,71.2,38.2,29.86,North,9,3.0,9.0,30,0.00,,,0.00,VWS V14.01,2013-04-24 18:45:00,
2013-04-24 14:50:00,70.4,37.5,29.86,West,259,6.0,9.0,30,0.00,,,0.00,VWS V14.01,2013-04-24 18:50:00,
2013-04-24 14:55:00,70.4,36.7,29.86,SSW,196,7.0,9.0,29,0.00,,,0.00,VWS V14.01,2013-04-24 18:55:00,
2013-04-24 15:00:00,69.8,37.0,29.86,SW,221,4.0,9.0,30,0.00,,,0.00,VWS V14.01,2013-04-24 19:00:00,
2013-04-24 15:05:00,71.3,40.0,29.86,WNW,286,3.0,4.0,32,0.00,,,0.00,VWS V14.01,2013-04-24 19:05:00,
2013-04-24 15:10:00,72.0,36.2,29.86,SW,225,3.0,7.0,27,0.00,,,0.00,VWS V14.01,2013-04-24 19:10:00,
2013-04-24 15:15:00,71.4,40.8,29.86,WNW,284,8.0,10.0,33,0.00,,,0.00,VWS V14.01,2013-04-24 19:15:00,
2013-04-24 15:20:00,71.6,34.9,29.86,West,278,5.0,10.0,26,0.00,,,0.00,VWS V14.01,2013-04-24 19:20:00,
2013-04-24 15:25:00,71.7,36.0,29.86,WNW,284,4.0,10.0,27,0.00,,,0.00,VWS V14.01,2013-04-24 19:25:00,
2013-04-24 15:30:00,72.2,36.4,29.86,NW,306,4.0,10.0,27,0.00,,,0.00,VWS V14.01,2013-04-24 19:30:00,
2013-04-24 15:35:00,71.9,36.1,29.85,WSW,248,4.0,5.0,27,0.00,,,0.00,VWS V14.01,2013-04-24 19:35:00,
2013-04-24 15:40:00,72.1,37.2,29.85,West,269,2.0,10.0,28,0.00,,,0.00,VWS V14.01,2013-04-24 19:40:00,
2013-04-24 15:45:00,71.7,36.9,29.85,West,263,2.0,10.0,28,0.00,,,0.00,VWS V14.01,2013-04-24 19:45:00,
2013-04-24 15:50:00,71.5,36.7,29.85,SSW,209,1.0,12.0,28,0.00,,,0.00,VWS V14.01,2013-04-24 19:50:00,
2013-04-24 15:55:00,71.2,36.5,29.85,SSW,205,3.0,12.0,28,0.00,,,0.00,VWS V14.01,2013-04-24 19:55:00,
2013-04-24 16:00:00,71.7,36.9,29.85,WSW,250,3.0,12.0,28,0.00,,,0.00,VWS V14.01,2013-04-24 20:00:00,
2013-04-24 16:05:00,71.9,38.0,29.85,South,186,3.0,4.0,29,0.00,,,0.00,VWS V14.01,2013-04-24 20:05:00,
2013-04-24 16:10:00,72.0,37.1,29.85,SSW,200,0.0,7.0,28,0.00,,,0.00,VWS V14.01,2013-04-24 20:10:00,
2013-04-24 16:15:00,72.0,38.0,29.85,NW,308,5.0,7.0,29,0.00,,,0.00,VWS V14.01,2013-04-24 20:15:00,
2013-04-24 16:20:00,72.0,38.0,29.85,West,280,9.0,11.0,29,0.00,,,0.00,VWS V14.01,2013-04-24 20:20:00,
2013-04-24 16:25:00,71.1,39.0,29.85,West,279,2.0,11.0,31,0.00,,,0.00,VWS V14.01,2013-04-24 20:25:00,
2013-04-24 16:30:00,72.3,40.0,29.85,WSW,241,1.0,11.0,31,0.00,,,0.00,VWS V14.01,2013-04-24 20:30:00,
2013-04-24 16:35:00,73.1,41.5,29.85,SW,232,1.0,3.0,32,0.00,,,0.00,VWS V14.01,2013-04-24 20:35:00,
2013-04-24 16:40:00,72.7,41.2,29.85,SSW,205,0.0,8.0,32,0.00,,,0.00,VWS V14.01,2013-04-24 20:40:00,
2013-04-24 16:45:00,72.5,41.8,29.85,West,277,3.0,8.0,33,0.00,,,0.00,VWS V14.01,2013-04-24 20:45:00,
2013-04-24 16:50:00,72.6,41.1,29.84,WSW,243,2.0,10.0,32,0.00,,,0.00,VWS V14.01,2013-04-24 20:50:00,
2013-04-24 16:55:00,72.2,40.7,29.84,SW,223,3.0,10.0,32,0.00,,,0.00,VWS V14.01,2013-04-24 20:55:00,
2013-04-24 17:00:00,72.3,41.6,29.83,WSW,250,3.0,10.0,33,0.00,,,0.00,VWS V14.01,2013-04-24 21:00:00,
2013-04-24 17:05:00,72.9,41.3,29.83,SSE,158,1.0,2.0,32,0.00,,,0.00,VWS V14.01,2013-04-24 21:05:00,
2013-04-24 17:10:00,72.5,40.2,29.83,SSE,162,6.0,8.0,31,0.00,,,0.00,VWS V14.01,2013-04-24 21:10:00,
2013-04-24 17:15:00,72.3,42.4,29.84,SSW,204,5.0,8.0,34,0.00,,,0.00,VWS V14.01,2013-04-24 21:15:00,
2013-04-24 17:19:00,72.4,41.7,29.83,SW,216,4.0,8.0,33,0.00,,,0.00,VWS V14.01,2013-04-24 21:19:00,
2013-04-24 17:24:00,72.5,41.0,29.83,SSW,213,2.0,8.0,32,0.00,,,0.00,VWS V14.01,2013-04-24 21:24:00,
2013-04-24 17:29:00,72.0,42.1,29.83,SSW,212,7.0,13.0,34,0.00,,,0.00,VWS V14.01,2013-04-24 21:29:00,
2013-04-24 17:34:00,71.5,43.9,29.83,SSW,194,0.0,1.0,37,0.00,,,0.00,VWS V14.01,2013-04-24 21:34:00,
2013-04-24 17:39:00,71.4,43.8,29.83,SSW,208,2.0,8.0,37,0.00,,,0.00,VWS V14.01,2013-04-24 21:39:00,
2013-04-24 17:44:00,71.3,43.7,29.83,SSE,167,4.0,9.0,37,0.00,,,0.00,VWS V14.01,2013-04-24 21:44:00,
2013-04-24 17:49:00,70.8,44.0,29.83,SW,225,7.0,12.0,38,0.00,,,0.00,VWS V14.01,2013-04-24 21:49:00,
2013-04-24 17:54:00,70.5,44.4,29.83,SSW,211,7.0,12.0,39,0.00,,,0.00,VWS V14.01,2013-04-24 21:54:00,
2013-04-24 17:59:00,70.3,44.9,29.84,SE,125,4.0,12.0,40,0.00,,,0.00,VWS V14.01,2013-04-24 21:59:00,
2013-04-24 18:04:00,70.0,44.6,29.83,SSW,196,2.0,4.0,40,0.00,,,0.00,VWS V14.01,2013-04-24 22:04:00,
2013-04-24 18:09:00,69.7,44.3,29.83,South,186,5.0,8.0,40,0.00,,,0.00,VWS V14.01,2013-04-24 22:09:00,
2013-04-24 18:14:00,69.5,44.2,29.83,SSW,196,4.0,8.0,40,0.00,,,0.00,VWS V14.01,2013-04-24 22:14:00,
2013-04-24 18:19:00,69.4,44.1,29.83,SSW,195,4.0,8.0,40,0.00,,,0.00,VWS V14.01,2013-04-24 22:19:00,
2013-04-24 18:24:00,69.1,43.8,29.83,West,278,1.0,8.0,40,0.00,,,0.00,VWS V14.01,2013-04-24 22:24:00,
2013-04-24 18:29:00,68.8,44.2,29.84,SW,219,2.0,8.0,41,0.00,,,0.00,VWS V14.01,2013-04-24 22:29:00,
2013-04-24 18:34:00,68.7,44.1,29.84,SSW,202,2.0,3.0,41,0.00,,,0.00,VWS V14.01,2013-04-24 22:34:00,
2013-04-24 18:39:00,68.1,42.9,29.83,SSE,157,3.0,10.0,40,0.00,,,0.00,VWS V14.01,2013-04-24 22:39:00,
2013-04-24 18:44:00,67.5,43.0,29.83,SW,219,1.0,10.0,41,0.00,,,0.00,VWS V14.01,2013-04-24 22:44:00,
2013-04-24 18:49:00,67.1,43.3,29.83,SSW,195,2.0,10.0,42,0.00,,,0.00,VWS V14.01,2013-04-24 22:49:00,
2013-04-24 18:54:00,66.7,43.5,29.83,SW,218,0.0,10.0,43,0.00,,,0.00,VWS V14.01,2013-04-24 22:54:00,
2013-04-24 18:59:00,66.4,43.8,29.83,South,191,2.0,10.0,44,0.00,,,0.00,VWS V14.01,2013-04-24 22:59:00,
2013-04-24 19:04:00,66.1,43.6,29.83,South,176,2.0,2.0,44,0.00,,,0.00,VWS V14.01,2013-04-24 23:04:00,
2013-04-24 19:09:00,65.7,44.4,29.84,South,190,2.0,5.0,46,0.00,,,0.00,VWS V14.01,2013-04-24 23:09:00,
2013-04-24 19:14:00,65.1,44.9,29.84,SSW,202,4.0,6.0,48,0.00,,,0.00,VWS V14.01,2013-04-24 23:14:00,
2013-04-24 19:19:00,64.6,45.0,29.84,SSW,210,0.0,6.0,49,0.00,,,0.00,VWS V14.01,2013-04-24 23:19:00,
2013-04-24 19:24:00,64.0,45.5,29.84,SW,224,1.0,6.0,51,0.00,,,0.00,VWS V14.01,2013-04-24 23:24:00,
2013-04-24 19:29:00,63.6,45.2,29.84,SSW,198,2.0,6.0,51,0.00,,,0.00,VWS V14.01,2013-04-24 23:29:00,
2013-04-24 19:34:00,63.0,45.6,29.84,West,279,3.0,6.0,53,0.00,,,0.00,VWS V14.01,2013-04-24 23:34:00,
2013-04-24 19:39:00,62.2,45.4,29.84,South,190,2.0,5.0,54,0.00,,,0.00,VWS V14.01,2013-04-24 23:39:00,
2013-04-24 19:44:00,61.6,45.3,29.84,SSW,201,2.0,5.0,55,0.00,,,0.00,VWS V14.01,2013-04-24 23:44:00,
2013-04-24 19:49:00,61.2,45.4,29.85,SSW,198,3.0,9.0,56,0.00,,,0.00,VWS V14.01,2013-04-24 23:49:00,
2013-04-24 19:54:00,60.7,45.4,29.85,SSW,211,3.0,9.0,57,0.00,,,0.00,VWS V14.01,2013-04-24 23:54:00,
2013-04-24 19:59:00,60.2,45.4,29.85,SW,219,1.0,9.0,58,0.00,,,0.00,VWS V14.01,2013-04-24 23:59:00,
2013-04-24 20:04:00,59.7,45.4,29.85,SSW,212,2.0,9.0,59,0.00,,,0.00,VWS V14.01,2013-04-25 00:04:00,
2013-04-24 20:09:00,59.1,45.2,29.85,SSW,197,3.0,7.0,60,0.00,,,0.00,VWS V14.01,2013-04-25 00:09:00,
2013-04-24 20:14:00,58.7,45.3,29.86,South,175,3.0,7.0,61,0.00,,,0.00,VWS V14.01,2013-04-25 00:14:00,
2013-04-24 20:19:00,58.2,45.3,29.86,South,179,0.0,10.0,62,0.00,,,0.00,VWS V14.01,2013-04-25 00:19:00,
2013-04-24 20:24:00,57.6,45.5,29.86,SW,217,3.0,10.0,64,0.00,,,0.00,VWS V14.01,2013-04-25 00:24:00,
2013-04-24 20:29:00,57.3,45.7,29.86,SSW,211,2.0,10.0,65,0.00,,,0.00,VWS V14.01,2013-04-25 00:29:00,
2013-04-24 20:34:00,56.9,45.7,29.86,SSW,194,2.0,10.0,66,0.00,,,0.00,VWS V14.01,2013-04-25 00:34:00,
2013-04-24 20:39:00,56.6,45.8,29.86,SW,220,2.0,9.0,67,0.00,,,0.00,VWS V14.01,2013-04-25 00:39:00,
2013-04-24 20:44:00,56.4,46.0,29.86,North,11,1.0,9.0,68,0.00,,,0.00,VWS V14.01,2013-04-25 00:44:00,
2013-04-24 20:49:00,56.2,46.2,29.86,WSW,250,2.0,9.0,69,0.00,,,0.00,VWS V14.01,2013-04-25 00:49:00,
2013-04-24 20:54:00,56.0,46.4,29.86,SW,229,3.0,9.0,70,0.00,,,0.00,VWS V14.01,2013-04-25 00:54:00,
2013-04-24 20:59:00,55.9,46.7,29.86,SSW,210,1.0,9.0,71,0.00,,,0.00,VWS V14.01,2013-04-25 00:59:00,
2013-04-24 21:04:00,55.5,46.6,29.86,SSW,211,4.0,9.0,72,0.00,,,0.00,VWS V14.01,2013-04-25 01:04:00,
2013-04-24 21:09:00,55.4,46.5,29.86,SSW,213,2.0,5.0,72,0.00,,,0.00,VWS V14.01,2013-04-25 01:09:00,
2013-04-24 21:14:00,55.4,46.5,29.87,SW,220,0.0,5.0,72,0.00,,,0.00,VWS V14.01,2013-04-25 01:14:00,
2013-04-24 21:19:00,55.1,46.6,29.87,SW,225,4.0,6.0,73,0.00,,,0.00,VWS V14.01,2013-04-25 01:19:00,
2013-04-24 21:24:00,55.0,46.5,29.87,SSW,208,3.0,6.0,73,0.00,,,0.00,VWS V14.01,2013-04-25 01:24:00,
2013-04-24 21:29:00,54.8,46.7,29.87,SW,236,6.0,11.0,74,0.00,,,0.00,VWS V14.01,2013-04-25 01:29:00,
2013-04-24 21:34:00,54.7,46.6,29.88,SW,229,4.0,11.0,74,0.00,,,0.00,VWS V14.01,2013-04-25 01:34:00,
2013-04-24 21:39:00,54.6,46.5,29.88,SSW,202,6.0,9.0,74,0.00,,,0.00,VWS V14.01,2013-04-25 01:39:00,
2013-04-24 21:44:00,54.4,46.7,29.88,SW,219,6.0,9.0,75,0.00,,,0.00,VWS V14.01,2013-04-25 01:44:00,
2013-04-24 21:49:00,54.3,46.6,29.88,SSW,207,1.0,10.0,75,0.00,,,0.00,VWS V14.01,2013-04-25 01:49:00,
2013-04-24 21:54:00,54.1,46.4,29.88,SSW,205,2.0,10.0,75,0.00,,,0.00,VWS V14.01,2013-04-25 01:54:00,
2013-04-24 21:59:00,53.7,46.3,29.88,SW,215,4.0,10.0,76,0.00,,,0.00,VWS V14.01,2013-04-25 01:59:00,
2013-04-24 22:04:00,53.3,46.3,29.88,SW,217,3.0,10.0,77,0.00,,,0.00,VWS V14.01,2013-04-25 02:04:00,
2013-04-24 22:09:00,53.0,46.0,29.87,SSW,206,5.0,6.0,77,0.00,,,0.00,VWS V14.01,2013-04-25 02:09:00,
2013-04-24 22:14:00,52.7,46.0,29.87,SSW,205,2.0,9.0,78,0.00,,,0.00,VWS V14.01,2013-04-25 02:14:00,
2013-04-24 22:19:00,52.4,46.1,29.86,SSW,210,3.0,9.0,79,0.00,,,0.00,VWS V14.01,2013-04-25 02:19:00,
2013-04-24 22:24:00,52.2,45.9,29.87,SSW,196,3.0,9.0,79,0.00,,,0.00,VWS V14.01,2013-04-25 02:24:00,
2013-04-24 22:29:00,52.0,46.0,29.87,SSW,202,3.0,9.0,80,0.00,,,0.00,VWS V14.01,2013-04-25 02:29:00,
2013-04-24 22:34:00,51.6,45.6,29.86,West,260,5.0,9.0,80,0.00,,,0.00,VWS V14.01,2013-04-25 02:34:00,
2013-04-24 22:39:00,51.4,45.8,29.86,SSW,211,3.0,7.0,81,0.00,,,0.00,VWS V14.01,2013-04-25 02:39:00,
2013-04-24 22:44:00,51.2,45.6,29.87,SSW,210,4.0,7.0,81,0.00,,,0.00,VWS V14.01,2013-04-25 02:44:00,
2013-04-24 22:49:00,50.9,45.6,29.86,SW,219,0.0,7.0,82,0.00,,,0.00,VWS V14.01,2013-04-25 02:49:00,
2013-04-24 22:54:00,50.6,45.6,29.86,South,174,1.0,7.0,83,0.00,,,0.00,VWS V14.01,2013-04-25 02:54:00,
2013-04-24 22:59:00,50.5,45.5,29.86,SSW,208,3.0,8.0,83,0.00,,,0.00,VWS V14.01,2013-04-25 02:59:00,
2013-04-24 23:04:00,50.3,45.7,29.86,SSW,213,3.0,8.0,84,0.00,,,0.00,VWS V14.01,2013-04-25 03:04:00,
2013-04-24 23:09:00,50.1,45.5,29.86,SSW,205,2.0,5.0,84,0.00,,,0.00,VWS V14.01,2013-04-25 03:09:00,
2013-04-24 23:14:00,50.0,45.4,29.86,SSE,154,2.0,9.0,84,0.00,,,0.00,VWS V14.01,2013-04-25 03:14:00,
2013-04-24 23:19:00,50.0,45.7,29.86,SW,219,3.0,11.0,85,0.00,,,0.00,VWS V14.01,2013-04-25 03:19:00,
2013-04-24 23:24:00,49.9,45.6,29.86,SW,234,2.0,11.0,85,0.00,,,0.00,VWS V14.01,2013-04-25 03:24:00,
2013-04-24 23:29:00,49.9,45.6,29.87,SSE,150,4.0,11.0,85,0.00,,,0.00,VWS V14.01,2013-04-25 03:29:00,
2013-04-24 23:34:00,49.8,45.8,29.87,SSW,205,2.0,11.0,86,0.00,,,0.00,VWS V14.01,2013-04-25 03:34:00,
2013-04-24 23:39:00,49.8,45.8,29.87,SE,129,2.0,7.0,86,0.00,,,0.00,VWS V14.01,2013-04-25 03:39:00,
2013-04-24 23:44:00,49.7,46.0,29.87,South,189,2.0,7.0,87,0.00,,,0.00,VWS V14.01,2013-04-25 03:44:00,
2013-04-24 23:49:00,49.8,46.1,29.87,SSW,211,3.0,8.0,87,0.00,,,0.00,VWS V14.01,2013-04-25 03:49:00,
2013-04-24 23:54:00,49.8,46.1,29.87,WSW,248,9.0,9.0,87,0.00,,,0.00,VWS V14.01,2013-04-25 03:54:00,
2013-04-24 23:59:00,49.8,46.1,29.87,South,190,4.0,9.0,87,0.00,,,0.00,VWS V14.01,2013-04-25 03:59:00,